This is the latest recevied weather packets stored in our database for station/object KB1PVH-13. If no packets are shown the sender has not sent any weather packets the latest 10 day(s).
| Time | Temp. | Humidity | Pressure | Rain* | Wind** | Luminosity | Snow |
|---|---|---|---|---|---|---|---|
| 1777883716 | 5.56° C | 64% | 926.8 hPa | 0 mm | - | - | - |
| 1777879516 | 5.56° C | 72% | 926.8 hPa | 0 mm | - | - | - |
| 1777878338 | 5.56° C | 72% | 926.6 hPa | 0 mm | - | - | - |
| 1777875317 | 5° C | 73% | 926.9 hPa | 0 mm | - | - | - |
| 1777874716 | 4.44° C | 72% | 926.9 hPa | 0 mm | - | - | - |
| 1777871716 | 5° C | 71% | 927 hPa | 0 mm | - | - | - |
| 1777869316 | 4.44° C | 73% | 927 hPa | 0 mm | - | - | - |
| 1777865116 | 3.89° C | 72% | 926.5 hPa | 0 mm | - | - | - |
| 1777857916 | 5° C | 64% | 925.9 hPa | 0 mm | - | - | - |
| 1777852556 | 8.89° C | 42% | 925 hPa | 0 mm | - | - | - |
| 1777847715 | 11.11° C | 37% | 924.1 hPa | 0 mm | - | - | - |
| 1777845315 | 11.67° C | 35% | 923.8 hPa | 0 mm | - | - | - |
| 1777835717 | 12.22° C | 40% | 922.6 hPa | 0 mm | - | - | - |
| 1777832137 | 12.78° C | 38% | 922.5 hPa | 0 mm | - | - | - |
| 1777831538 | 12.22° C | 38% | 922.5 hPa | 0 mm | - | - | - |
| 1777828517 | 11.67° C | 42% | 922.3 hPa | 0 mm | - | - | - |
| 1777825517 | 11.11° C | 48% | 922.5 hPa | 0 mm | - | - | - |
| 1777820717 | 8.89° C | 60% | 922.8 hPa | 0 mm | - | - | - |
| 1777818917 | 8.89° C | 64% | 922.6 hPa | 0 mm | - | - | - |
| 1777817717 | 10° C | 62% | 922.6 hPa | 0 mm | - | - | - |
| 1777817117 | 8.89° C | 64% | 922.6 hPa | 0 mm | - | - | - |
| 1777811717 | 7.22° C | 70% | 922.9 hPa | 0 mm | - | - | - |
| 1777808116 | 6.11° C | 72% | 923.3 hPa | 0 mm | - | - | - |
| 1777807518 | 6.11° C | 72% | 923.3 hPa | 0 mm | - | - | - |
| 1777801557 | 4.44° C | 78% | 923.3 hPa | 0 mm | - | - | - |
* Rain latest hour (hover to see other rain measurements)
** Current wind speed in m/s (hover to see current wind gust speed)